軌道要素
Epoch 2020 Dec. 17.0 TT = JDT 2459200.5
T 2020 Dec. 25.70042 TT Rudenko
q 1.8488302 (2000.0) P Q
n 0.13428283 Peri. 84.64528 +0.38008866 -0.92436546
a 3.7767862 Node 342.90175 +0.79816331 +0.34574455
e 0.5104753 Incl. 6.42100 +0.46740555 +0.16127369
P 7.34
From 306 observations 2020 Sept. 17-2021 Apr. 11, mean residual 0".7.
|